Location: Karlsruhe
(49.0131°N, 8.3874°E)
Time: 06:02:32
(UTC+01:00)

ISS - Pass Details

Date: 16 November 2017
Orbit: 402 x 407 km, 51.6° (Epoch: 19 November)

Event Time Altitude Azimuth Distance (km) Brightness Sun altitude
Exits shadow 05:38:16 30° 191° (S) 748 -2.6 -19.4°
Drops below altitude 10° 05:40:39 10° 148° (SSE) 1,449 -0.5 -19.0°
Sets 05:42:50 0° 139° (SE) 2,305 0.8 -18.6°
